Miscellaneous Local Product
Issued by NWS Hastings, NE

Home | Current Version | Previous Version | Graphics & Text | Print | Product List | Glossary On
Versions: 1 2 3 4 5 6 7 8 9 10 11 12 13 14 15 16 17 18 19 20 21 22 23 24 25 26 27 28 29 30 31 32 33 34 35 36 37 38 39 40 41 42 43 44 45 46 47 48 49 50
000
AXUS43 KGID 222002
MISGRI

GID CWA HOURLY WEATHER ROUNDUP
NATIONAL WEATHER SERVICE HASTINGS NE
200 PM CST MON JAN 22 2018

NOTE: "FAIR" INDICATES FEW OR NO CLOUDS BELOW 12,000 FEET WITH NO
SIGNIFICANT WEATHER AND/OR OBSTRUCTIONS TO VISIBILITY.

...SOUTH CENTRAL NEBRASKA...

CITY           SKY/WX    TMP DP  RH WIND       PRES   REMARKS
GRAND ISLAND   FOG       28  25  88 NW33G43   29.68R VSB 3/4 WCI  11
KEARNEY        CLOUDY    31  25  78 N31G37    29.75  WCI  16
HASTINGS       LGT SNOW  30  24  78 NW33G48   29.69R VSB 1   WCI  14
ORD            CLOUDY    29  23  78 N24G37    29.76S HAZE    WCI  15

...NEBRASKA PANHANDLE...

CITY           SKY/WX    TMP DP  RH WIND       PRES   REMARKS
CHADRON        SUNNY     25  14  63 NW18G25   30.00F WCI  11
ALLIANCE       SUNNY     29  17  61 NW15      29.94F WCI  18
SCOTTSBLUFF    SUNNY     30  17  58 W18       29.99F WCI  18
SIDNEY         SUNNY     31  17  56 NW22G32   29.96F WCI  18

...WESTERN AND NORTH CENTRAL NEBRASKA...

CITY           SKY/WX    TMP DP  RH WIND       PRES   REMARKS
VALENTINE      MOSUNNY   32  21  64 NW18G26   29.89F WCI  20
BROKEN BOW     CLOUDY    31  24  75 NW24G36   29.79S WCI  17
IMPERIAL       MIX PCPN  30  19  63 NW20G29   29.91F WCI  17
NORTH PLATTE   PTSUNNY   32  21  64 NW21G32   29.88F WCI  20
MCCOOK         MOSUNNY   31  23  72 NW29G37   29.87S HAZE    WCI  16

...EASTERN NEBRASKA...

CITY           SKY/WX    TMP DP  RH WIND       PRES   REMARKS
NORFOLK        FOG       25  23  92 N28G45    29.63R VSB 1/2 WCI   9
SO SIOUX CITY  SNOW      29  28  96 N32G40    29.59R VSB 1/2 WCI  13
COLUMBUS       SNOW      27  25  92 MISG      29.61R VSB 1/4
OMAHA EPPLEY   LGT SNOW  33  31  92 N24G37    29.48R VSB 3/4 WCI  20
LINCOLN        SNOW      29  27  92 N31G47    29.53R VSB 1/2 WCI  13
FALLS CITY     MIX PCPN  33  32  96 NW16      29.41R FOG     WCI  23

...NORTHERN KANSAS...

CITY           SKY/WX    TMP DP  RH WIND       PRES   REMARKS
GOODLAND       MIX PCPN  30  20  66 NW22G32   29.92F WCI  17
HILL CITY      PTSUNNY   34  26  72 NW26G43   29.84S WCI  21
NORTON         MOCLDY    34  25  69 NW29      29.82S WCI  20
PHILLIPSBURG   SUNNY     36  27  69 NW23G31   29.80R WCI  24
SMITH CENTER   CLOUDY    34  27  75 NW30G36   29.74S WCI  20
HAYS           PTSUNNY   37  27  67 NW30G40   29.79R WCI  24
RUSSELL        PTSUNNY   36  29  75 NW33G45   29.75R WCI  22
CONCORDIA      LGT SNOW  31  30  96 NW25G43   29.63R VSB 1   WCI  17
SALINA         LGT SNOW  35  32  88 NW33G41   29.66S FOG     WCI  21
TOPEKA         CLOUDY    34  31  88 W18G29    29.49R WCI  23



USA.gov is the U.S. government's official web portal to all federal, state and local government web resources and services.